Location: Санкт-Петербург
(59.9358°N, 30.3401°E)
Time: 16:06:21
(UTC+03:00)

ISS - Pass Details

Date: 29 January 2021
Orbit: 417 x 422 km, 51.6° (Epoch: 18 May)

Event Time Altitude Azimuth Distance (km) Brightness Sun altitude
Rises 18:12:37 0° 238° (WSW) 2,370 2.1 -8.2°
Reaches altitude 10° 18:15:04 10° 220° (SW) 1,508 0.1 -8.5°
Maximum altitude 18:17:35 20° 172° (S) 1,060 -1.6 -8.7°
Drops below altitude 10° 18:20:06 10° 124° (SE) 1,512 -1.3 -9.0°
Enters shadow 18:21:10 - 115° (ESE) 1,862 -0.9 -9.2°
